When you browse on this site, cookies collect data to enhance your experience and personalize the content and advertising you see.
Visit our Privacy Policy to learn more. By continuing to use the site, you agree to this use of cookies and data.
  • In Sweden
  • List of Countries
  • For 7 days
  • Water Temperature
  • Weather Map
  • Weather Widgets
  • user-avatar
    Login

    Hourly Weather Bandundu

    Today, 27 February, Thursday

    Time Temperature Precipitation Wind Pressure Humidity
    00:00 +26°C° 0.1 mm 1 mps 731 mmHg 90%
    01:00 +26°C° 0 mm 1 mps 731 mmHg 90%
    02:00 +26°C° 0 mm 1 mps 731 mmHg 91%
    03:00 +26°C° 0 mm 1 mps 730 mmHg 91%
    04:00 +26°C° 0 mm 1 mps 730 mmHg 92%
    05:00 +26°C° 0 mm 1 mps 731 mmHg 92%
    06:00 +26°C° 0 mm 1 mps 731 mmHg 91%
    07:00 +26°C° 0 mm 1 mps 732 mmHg 91%
    08:00 +28°C° 0 mm 1 mps 732 mmHg 82%
    09:00 +30°C° 0 mm 2 mps 732 mmHg 72%
    10:00 +32°C° 0 mm 2 mps 732 mmHg 63%
    11:00 +34°C° 0.1 mm 2 mps 732 mmHg 59%
    12:00 +36°C° 0.1 mm 2 mps 731 mmHg 55%
    13:00 +36°C° 0.1 mm 1 mps 730 mmHg 52%
    14:00 +35°C° 0.2 mm 1 mps 729 mmHg 53%
    15:00 +35°C° 0.2 mm 1 mps 728 mmHg 55%
    16:00 +34°C° 0.2 mm 1 mps 728 mmHg 57%
    17:00 +33°C° 0.2 mm 1 mps 728 mmHg 64%
    18:00 +31°C° 0.2 mm 1 mps 729 mmHg 71%
    19:00 +29°C° 0.2 mm 1 mps 729 mmHg 77%
    20:00 +28°C° 0 mm 1 mps 730 mmHg 79%
    21:00 +28°C° 0 mm 1 mps 730 mmHg 81%
    22:00 +28°C° 0 mm 1 mps 731 mmHg 82%
    23:00 +27°C° 0 mm 1 mps 730 mmHg 84%

    Tomorrow, 28 February, Friday

    Time Temperature Precipitation Wind Pressure Humidity
    00:00 +27°C° 0 mm 1 mps 730 mmHg 85%
    01:00 +27°C° 0 mm 1 mps 730 mmHg 86%
    02:00 +26°C° 0 mm 1 mps 730 mmHg 86%
    03:00 +26°C° 0 mm 1 mps 730 mmHg 86%
    04:00 +26°C° 0 mm 1 mps 729 mmHg 86%
    05:00 +26°C° 0.3 mm 1 mps 730 mmHg 87%
    06:00 +26°C° 0.3 mm 1 mps 731 mmHg 88%
    07:00 +26°C° 0.3 mm 1 mps 731 mmHg 89%
    08:00 +28°C° 0.2 mm 1 mps 731 mmHg 80%
    09:00 +31°C° 0.2 mm 1 mps 732 mmHg 71%
    10:00 +34°C° 0.2 mm 2 mps 732 mmHg 62%
    11:00 +35°C° 0 mm 1 mps 731 mmHg 56%
    12:00 +37°C° 0 mm 1 mps 730 mmHg 50%
    13:00 +40°C° 0 mm 1 mps 730 mmHg 44%
    14:00 +39°C° 0 mm 1 mps 729 mmHg 47%
    15:00 +37°C° 0 mm 1 mps 728 mmHg 49%
    16:00 +36°C° 0 mm 1 mps 727 mmHg 51%
    17:00 +34°C° 0 mm 1 mps 728 mmHg 57%
    18:00 +32°C° 0 mm 1 mps 728 mmHg 63%
    19:00 +30°C° 0 mm 1 mps 729 mmHg 68%
    20:00 +29°C° 1.4 mm 1 mps 730 mmHg 77%
    21:00 +28°C° 1.4 mm 1 mps 730 mmHg 85%
    22:00 +26°C° 1.4 mm 1 mps 731 mmHg 94%
    23:00 +26°C° 1.7 mm 1 mps 731 mmHg 93%

    Day after tomorrow, 29 February, Saturday

    Time Temperature Precipitation Wind Pressure Humidity
    00:00 +26°C° 1.7 mm 1 mps 731 mmHg 93%
    01:00 +26°C° 1.7 mm 1 mps 731 mmHg 93%
    02:00 +26°C° 8.3 mm 1 mps 731 mmHg 94%
    03:00 +25°C° 8.3 mm 2 mps 731 mmHg 96%
    04:00 +25°C° 8.3 mm 3 mps 731 mmHg 97%
    05:00 +25°C° 10 mm 3 mps 731 mmHg 97%
    06:00 +24°C° 10 mm 3 mps 732 mmHg 97%
    07:00 +23°C° 10 mm 4 mps 732 mmHg 97%
    08:00 +23°C° 0.9 mm 4 mps 733 mmHg 95%
    09:00 +23°C° 0.9 mm 4 mps 733 mmHg 93%
    10:00 +23°C° 0.9 mm 4 mps 733 mmHg 91%
    11:00 +26°C° 0 mm 3 mps 732 mmHg 85%
    12:00 +27°C° 0 mm 2 mps 732 mmHg 80%
    13:00 +28°C° 0 mm 1 mps 731 mmHg 74%
    14:00 +28°C° 0 mm 1 mps 730 mmHg 74%
    15:00 +28°C° 0 mm 1 mps 730 mmHg 73%
    16:00 +27°C° 0 mm 0 mps 729 mmHg 72%
    17:00 +27°C° 0 mm 1 mps 730 mmHg 77%
    18:00 +26°C° 0 mm 1 mps 730 mmHg 81%
    19:00 +25°C° 0 mm 1 mps 731 mmHg 85%
    20:00 +25°C° 0 mm 1 mps 731 mmHg 87%
    21:00 +25°C° 0 mm 1 mps 732 mmHg 88%
    22:00 +24°C° 0 mm 1 mps 732 mmHg 89%
    23:00 +24°C° 0 mm 1 mps 732 mmHg 89%

    1 March, Sunday

    Time Temperature Precipitation Wind Pressure Humidity
    00:00 +24°C° 0 mm 1 mps 732 mmHg 88%
    01:00 +24°C° 0 mm 1 mps 732 mmHg 88%
    02:00 +23°C° 0.5 mm 1 mps 732 mmHg 89%
    03:00 +23°C° 0.5 mm 1 mps 732 mmHg 90%
    04:00 +23°C° 0.5 mm 1 mps 732 mmHg 92%
    05:00 +23°C° 0 mm 1 mps 732 mmHg 91%
    06:00 +23°C° 0 mm 1 mps 732 mmHg 90%
    07:00 +23°C° 0 mm 1 mps 733 mmHg 89%
    08:00 +25°C° 0 mm 2 mps 733 mmHg 81%
    09:00 +27°C° 0 mm 2 mps 733 mmHg 74%
    10:00 +29°C° 0 mm 3 mps 733 mmHg 66%
    11:00 +31°C° 0 mm 3 mps 732 mmHg 60%
    12:00 +34°C° 0 mm 3 mps 731 mmHg 54%
    13:00 +36°C° 0 mm 3 mps 731 mmHg 48%
    14:00 +36°C° 0 mm 3 mps 730 mmHg 48%
    15:00 +36°C° 0 mm 2 mps 730 mmHg 49%
    16:00 +36°C° 0 mm 2 mps 729 mmHg 49%
    17:00 +33°C° 0 mm 1 mps 730 mmHg 57%
    18:00 +30°C° 0 mm 1 mps 730 mmHg 64%
    19:00 +28°C° 0 mm 1 mps 730 mmHg 72%
    20:00 +28°C° 0 mm 1 mps 731 mmHg 74%
    21:00 +27°C° 0 mm 1 mps 731 mmHg 77%
    22:00 +26°C° 0 mm 1 mps 731 mmHg 79%
    23:00 +26°C° 0 mm 1 mps 731 mmHg 81%

    2 March, Monday

    Time Temperature Precipitation Wind Pressure Humidity
    00:00 +24°C° 0 mm 0 mps 731 mmHg 82%
    01:00 +23°C° 0 mm 0 mps 731 mmHg 84%
    02:00 +23°C° 0 mm 0 mps 731 mmHg 85%
    03:00 +23°C° 0 mm 0 mps 731 mmHg 87%
    04:00 +23°C° 0 mm 0 mps 731 mmHg 88%
    05:00 +23°C° 0 mm 0 mps 731 mmHg 88%
    06:00 +23°C° 0 mm 0 mps 732 mmHg 87%
    07:00 +24°C° 0 mm 0 mps 733 mmHg 87%
    08:00 +26°C° 0 mm 0 mps 733 mmHg 78%
    09:00 +29°C° 0 mm 0 mps 733 mmHg 69%
    10:00 +33°C° 0 mm 1 mps 734 mmHg 61%
    11:00 +34°C° 0 mm 1 mps 733 mmHg 56%
    12:00 +36°C° 0 mm 1 mps 732 mmHg 50%
    13:00 +37°C° 0 mm 1 mps 731 mmHg 45%
    14:00 +37°C° 0 mm 1 mps 731 mmHg 46%
    15:00 +36°C° 0 mm 1 mps 730 mmHg 47%
    16:00 +35°C° 0 mm 1 mps 730 mmHg 48%
    17:00 +33°C° 0 mm 1 mps 730 mmHg 54%
    18:00 +32°C° 0 mm 1 mps 730 mmHg 59%
    19:00 +30°C° 0 mm 1 mps 730 mmHg 65%
    20:00 +29°C° 0.1 mm 1 mps 730 mmHg 67%
    21:00 +28°C° 0.1 mm 1 mps 731 mmHg 69%
    22:00 +28°C° 0.1 mm 1 mps 731 mmHg 72%
    23:00 +27°C° 0 mm 1 mps 731 mmHg 75%

    3 March, Tuesday

    Time Temperature Precipitation Wind Pressure Humidity
    00:00 +27°C° 0 mm 1 mps 731 mmHg 78%
    01:00 +26°C° 0 mm 1 mps 731 mmHg 81%
    02:00 +24°C° 0.1 mm 0 mps 731 mmHg 83%
    03:00 +23°C° 0.1 mm 0 mps 731 mmHg 85%
    04:00 +23°C° 0.1 mm 0 mps 731 mmHg 87%
    05:00 +24°C° 0 mm 0 mps 732 mmHg 86%
    06:00 +24°C° 0 mm 0 mps 732 mmHg 86%
    07:00 +24°C° 0 mm 0 mps 733 mmHg 86%
    08:00 +27°C° 0 mm 0 mps 733 mmHg 76%
    09:00 +31°C° 0 mm 1 mps 733 mmHg 67%
    10:00 +34°C° 0 mm 1 mps 734 mmHg 58%
    11:00 +35°C° 0 mm 1 mps 733 mmHg 53%
    12:00 +35°C° 0 mm 0 mps 732 mmHg 49%
    13:00 +36°C° 0 mm 0 mps 732 mmHg 44%
    14:00 +36°C° 0 mm 0 mps 731 mmHg 45%
    15:00 +35°C° 0 mm 0 mps 730 mmHg 46%
    16:00 +34°C° 0 mm 0 mps 730 mmHg 47%
    17:00 +32°C° 0 mm 0 mps 730 mmHg 53%
    18:00 +30°C° 0 mm 0 mps 730 mmHg 60%
    19:00 +28°C° 0 mm 0 mps 730 mmHg 67%
    20:00 +27°C° 0 mm 0 mps 730 mmHg 70%
    21:00 +27°C° 0 mm 0 mps 731 mmHg 73%
    22:00 +26°C° 0 mm 0 mps 731 mmHg 76%
    23:00 +28°C° 0 mm 1 mps 731 mmHg 78%
    Show more